Lander, WY

4:04 PM MST on February 22, 2018 (GMT -0700)
Hunt

Weather History for KLND - April, 2013

Change the Weather History Date:

Sunday, April 28, 2013

  Actual Average Record
Temperature  
Mean Temperature 56 °F 48 °F  
Max Temperature 70 °F 60 °F 81 °F (2000)
Min Temperature 42 °F 35 °F 14 °F (1984)
Degree Days  
Heating Degree Days 9 17  
Month to date heating degree days 760 600  
Since 1 July heating degree days 7020 7219  
Cooling Degree Days 0 0  
Month to date cooling degree days 0 0  
Year to date cooling degree days 0 0  
Growing Degree Days 10 (Base 50)    
Moisture  
Dew Point 24 °F    
Average Humidity 30    
Maximum Humidity 45    
Minimum Humidity 15    
Precipitation  
Precipitation 0.00 in 0.08 in 1.12 in (1944)
Month to date precipitation 2.82 1.72  
Year to date precipitation 5.22 3.87  
Snow  
Snow 0.00 in 0.50 in - ()
Month to date snowfall 40.5 15.8  
Since 1 July snowfall 97.8 85.5  
Snow Depth 0.00 in    
Sea Level Pressure  
Sea Level Pressure 29.79 in    
Wind  
Wind Speed 11 mph (West)    
Max Wind Speed 32 mph    
Max Gust Speed 40 mph    
Visibility 10 miles    
Events      
T = Trace of Precipitation, MM = Missing Value Source: NWS Daily Summary

Daily Weather History Graph

Daily Weather History Graph

Search for Another Location

Airport or City:

Trip Planner

Search our weather history database for the weather conditions in past years. The results will help you decide how hot, cold, wet, or windy it might be!

Date:

Astronomy

Apr. 28, 2013 Rise Set
Actual Time 6:12 AM MDT 8:12 PM MDT
Civil Twilight 5:42 AM MDT 8:43 PM MDT
Nautical Twilight 5:04 AM MDT 9:20 PM MDT
Astronomical Twilight 4:24 AM MDT 10:01 PM MDT
Moon 11:48 PM MDT (4/28) 8:30 AM MDT (4/28)
Length of Visible Light 15h 00m
Length of Day
13h 59m
Waning Gibbous, 88% of the Moon is Illuminated
Apr 28
Waning Gibbous
May 2
Last Quarter
May 9
New
May 17
First Quarter
May 24
Full

Hourly Weather History & Observations

Time (MDT) Temp. Windchill Dew Point Humidity Pressure Visibility Wind Dir Wind Speed Gust Speed Precip Events Conditions
12:53 AM 55.9 °F - 23.0 °F 28% 29.84 in 10.0 mi East 3.5 mph - N/A   Clear
1:53 AM 53.1 °F - 25.0 °F 34% 29.83 in 10.0 mi East 5.8 mph - N/A   Clear
2:53 AM 53.1 °F - 26.1 °F 35% 29.82 in 10.0 mi WNW 6.9 mph - N/A   Clear
3:53 AM 57.9 °F - 19.9 °F 23% 29.79 in 10.0 mi West 13.8 mph - N/A   Clear
4:53 AM 57.0 °F - 19.9 °F 24% 29.81 in 10.0 mi West 9.2 mph - N/A   Clear
5:53 AM 57.0 °F - 19.9 °F 24% 29.81 in 10.0 mi SW 11.5 mph 19.6 mph N/A   Clear
6:53 AM 52.0 °F - 24.1 °F 34% 29.84 in 10.0 mi West 5.8 mph - N/A   Clear
7:53 AM 55.0 °F - 24.1 °F 30% 29.84 in 10.0 mi SW 5.8 mph - N/A   Clear
8:53 AM 59.0 °F - 27.0 °F 29% 29.83 in 10.0 mi Calm Calm - N/A   Clear
9:53 AM 64.9 °F - 21.0 °F 19% 29.79 in 10.0 mi Variable 4.6 mph - N/A   Clear
10:30 AM 66.2 °F - 21.2 °F 18% 29.94 in 10.0 mi South 11.5 mph - N/A   Clear
10:53 AM 64.9 °F - 27.0 °F 24% 29.78 in 10.0 mi NNE 9.2 mph - N/A   Clear
11:53 AM 64.9 °F - 21.9 °F 19% 29.77 in 10.0 mi Calm Calm - N/A   Clear
12:53 PM 66.0 °F - 21.0 °F 18% 29.77 in 10.0 mi WNW 11.5 mph 20.7 mph N/A   Clear
1:53 PM 68.0 °F - 19.0 °F 15% 29.74 in 10.0 mi NW 19.6 mph 29.9 mph N/A   Mostly Cloudy
2:53 PM 66.0 °F - 18.0 °F 16% 29.75 in 10.0 mi NW 21.9 mph 28.8 mph N/A   Partly Cloudy
3:53 PM 64.9 °F - 23.0 °F 20% 29.73 in 10.0 mi NW 23.0 mph 33.4 mph N/A   Mostly Cloudy
4:53 PM 66.0 °F - 25.0 °F 21% 29.72 in 10.0 mi NW 26.5 mph 39.1 mph N/A   Overcast
5:53 PM 64.9 °F - 28.9 °F 26% 29.76 in 10.0 mi West 15.0 mph 24.2 mph N/A   Partly Cloudy
6:53 PM 63.0 °F - 28.0 °F 27% 29.77 in 10.0 mi WNW 12.7 mph - N/A   Clear
7:53 PM 60.1 °F - 26.1 °F 27% 29.76 in 10.0 mi West 12.7 mph - N/A   Clear
8:53 PM 55.9 °F - 25.0 °F 30% 29.77 in 10.0 mi West 11.5 mph - N/A   Clear
9:53 PM 54.0 °F - 25.0 °F 33% 29.77 in 10.0 mi WSW 6.9 mph - N/A   Clear
10:53 PM 51.1 °F - 26.1 °F 38% 29.77 in 10.0 mi SW 10.4 mph - N/A   Clear
11:53 PM 46.0 °F 43.9 °F 26.1 °F 46% 29.76 in 10.0 mi SW 4.6 mph - N/A   Clear